Date String (YYYY-MM-DD hh:mm:ss) UTC,Instrument flags,absolute air pressure of the measurement (hPa),sample flow rate (lpm),inlet stack bypass flow (lpm),air temperature of the measurement (°C),ambient temperature measured by the external sensor (°C),aerosol sample conditioner tube jacket temperature (°C),OPC LED temperature (°C),internal box temperature (°C),relative humidity of the measurement (%),span deviation,mass concentration of particles derived from Lorenz-Mie calculation of OPC scattering (μg/m³),mass concentration of particles derived from Lorenz-Mie calculation of OPC scattering (μg/m³),mass concentration of particles derived from Lorenz-Mie calculation of OPC scattering (μg/m³)
DateTimeUTC,F1_M11,P_M11,Q1_M11,Q2_M11,T1_M11,T2_M11,T3_M11,T4_M11,T5_M11,U1_M11,ZSPAN_M11,X0_M11,X2_M11,X1_M11
2024-06-16 11:00:00,SystemResetWarning,0824.0,4.99,000.00,030.9,030.3,000.0,039.3,032.6,017.7,0003.0,0019.26,0007.12,0005.94
2024-06-16 11:01:00,SystemResetWarning,0823.9,4.99,000.00,031.0,030.3,000.0,039.3,032.7,017.7,0003.0,0019.60,0007.11,0005.95
2024-06-16 11:02:00,SystemResetWarning,0823.9,5.00,000.00,031.0,030.3,000.0,039.3,032.6,017.7,0003.2,0021.34,0007.09,0005.94
2024-06-16 11:03:00,SystemResetWarning,0823.8,5.00,000.00,031.0,030.3,000.0,039.3,032.6,017.8,0003.7,0021.41,0007.11,0005.96
2024-06-16 11:04:00,SystemResetWarning,0823.8,5.01,000.00,031.0,030.3,000.0,039.3,032.7,017.9,0000.7,0021.43,0007.17,0005.97
2024-06-16 11:05:00,SystemResetWarning,0823.8,5.00,000.00,031.0,030.3,000.0,039.3,032.7,017.9,0000.0,0021.10,0007.21,0005.99
2024-06-16 11:06:00,SystemResetWarning,0823.8,5.01,000.00,031.0,030.3,000.0,039.3,032.7,017.9,0000.0,0020.30,0007.17,0005.99
2024-06-16 11:07:00,SystemResetWarning,0823.8,4.98,000.00,031.0,030.3,000.0,039.4,032.7,017.9,0000.0,0020.25,0007.16,0005.99
2024-06-16 11:08:00,SystemResetWarning,0823.8,4.99,000.00,031.0,030.3,000.0,039.4,032.7,017.9,0000.0,0019.88,0007.19,0005.99
2024-06-16 11:09:00,SystemResetWarning,0823.8,5.02,000.00,031.0,030.3,000.0,039.4,032.7,017.8,0000.0,0021.09,0007.22,0006.00
2024-06-16 11:10:00,SystemResetWarning,0823.8,5.00,000.00,031.0,030.3,000.0,039.4,032.7,017.8,0000.0,0020.31,0007.19,0005.99
2024-06-16 11:11:00,SystemResetWarning,0823.9,4.99,000.00,031.0,030.4,000.0,039.4,032.7,017.7,0000.0,0020.28,0007.16,0005.97
2024-06-16 11:12:00,SystemResetWarning,0824.0,4.99,000.00,031.1,030.4,000.0,039.4,032.8,017.6,0000.0,0020.95,0007.17,0005.96
2024-06-16 11:13:00,SystemResetWarning,0824.0,5.00,000.00,031.1,030.4,000.0,039.4,032.8,017.5,0002.0,0019.31,0007.15,0005.96
2024-06-16 11:14:00,SystemResetWarning,0824.0,5.01,000.00,031.1,030.4,000.0,039.4,032.7,017.6,0000.9,0019.76,0007.11,0005.97
2024-06-16 11:15:00,SystemResetWarning,0824.0,5.01,000.00,031.1,030.4,000.0,039.5,032.8,017.6,0001.9,0019.37,0007.05,0005.99
2024-06-16 11:16:00,SystemResetWarning,0824.0,5.01,000.00,031.1,030.4,000.0,039.5,032.8,017.4,0002.7,0019.04,0007.09,0006.01
2024-06-16 11:17:00,SystemResetWarning,0823.9,5.00,000.00,031.1,030.4,000.0,039.5,032.8,017.4,0002.9,0019.31,0007.15,0006.06
2024-06-16 11:18:00,SystemResetWarning,0823.9,5.01,000.00,031.1,030.4,000.0,039.5,032.8,017.4,0002.9,0018.93,0007.22,0006.11
2024-06-16 11:19:00,SystemResetWarning,0823.9,5.00,000.00,031.1,030.4,000.0,039.5,032.8,017.3,0003.0,0018.11,0007.26,0006.17
2024-06-16 11:20:00,SystemResetWarning,0824.0,4.99,000.00,031.1,030.4,000.0,039.5,032.8,017.2,0003.3,0016.73,0007.27,0006.21
2024-06-16 11:21:00,SystemResetWarning,0823.9,5.00,000.00,031.1,030.4,000.0,039.5,032.8,017.3,0003.6,0016.97,0007.33,0006.27
2024-06-16 11:22:00,SystemResetWarning,0824.0,5.00,000.00,031.1,030.4,000.0,039.5,032.8,017.3,0003.8,0017.16,0007.41,0006.31
2024-06-16 11:23:00,SystemResetWarning,0824.0,5.00,000.00,031.1,030.4,000.0,039.5,032.8,017.3,0003.8,0016.26,0007.49,0006.35
2024-06-16 11:24:00,SystemResetWarning,0824.0,5.00,000.00,031.1,030.4,000.0,039.5,032.8,017.3,0003.4,0016.38,0007.58,0006.40
2024-06-16 11:25:00,SystemResetWarning,0824.0,5.00,000.00,031.1,030.4,000.0,039.5,032.8,017.3,0003.2,0015.62,0007.64,0006.43
2024-06-16 11:26:00,SystemResetWarning,0824.0,5.00,000.00,031.1,030.4,000.0,039.5,032.8,017.1,0003.1,0016.41,0007.69,0006.45
2024-06-16 11:27:00,SystemResetWarning,0824.0,5.00,000.00,031.1,030.4,000.0,039.5,032.8,017.0,0003.0,0018.22,0007.71,0006.50
2024-06-16 11:28:00,SystemResetWarning,0824.0,5.00,000.00,031.1,030.4,000.0,039.5,032.8,017.0,0002.9,0018.47,0007.72,0006.56
2024-06-16 11:29:00,SystemResetWarning,0824.0,5.00,000.00,031.1,030.4,000.0,039.5,032.8,016.8,0002.7,0018.50,0007.76,0006.60
2024-06-16 11:30:00,SystemResetWarning,0824.0,4.99,000.00,031.1,030.4,000.0,039.5,032.9,016.9,0001.9,0019.50,0007.86,0006.68
2024-06-16 11:31:00,SystemResetWarning,0824.0,5.00,000.00,031.2,030.4,000.0,039.5,032.9,016.9,0001.6,0021.05,0007.95,0006.75
2024-06-16 11:32:00,SystemResetWarning,0824.0,5.00,000.00,031.2,030.4,000.0,039.5,032.9,016.9,0001.5,0020.96,0008.03,0006.81
2024-06-16 11:33:00,SystemResetWarning,0824.0,5.00,000.00,031.2,030.5,000.0,039.6,032.9,016.7,0000.9,0020.71,0008.09,0006.89
2024-06-16 11:34:00,SystemResetWarning,0824.0,4.99,000.00,031.1,029.8,000.0,039.6,032.4,016.7,0001.4,0021.49,0008.11,0006.95
2024-06-16 11:35:00,SystemResetWarning,0823.9,5.01,000.00,030.7,027.1,000.0,039.6,031.2,017.1,0002.2,0021.59,0008.16,0007.02
2024-06-16 11:36:00,SystemResetWarning,0823.8,5.02,000.00,030.3,026.5,000.0,039.5,030.8,017.5,0002.8,0021.26,0008.21,0007.09
2024-06-16 11:37:00,SystemResetWarning,0823.8,4.99,000.00,030.1,026.9,000.0,039.3,030.9,017.6,0002.7,0021.20,0008.30,0007.18
2024-06-16 11:38:00,SystemResetWarning,0823.9,4.99,000.00,030.1,027.4,000.0,039.2,031.2,017.5,0002.3,0019.23,0008.36,0007.25
2024-06-16 11:39:00,SystemResetWarning,0823.9,5.00,000.00,030.1,027.8,000.0,039.1,031.4,017.5,0002.4,0018.32,0008.40,0007.32
2024-06-16 11:40:00,SystemResetWarning,0823.9,5.01,000.00,030.1,028.1,000.0,039.0,031.5,017.6,0003.0,0018.69,0008.50,0007.40
2024-06-16 11:41:00,SystemResetWarning,0823.9,5.00,000.00,030.1,028.4,000.0,038.9,031.6,017.6,0003.7,0018.24,0008.50,0007.43
2024-06-16 11:42:00,SystemResetWarning,0823.9,5.00,000.00,030.1,028.6,000.0,038.9,031.7,017.7,0004.1,0017.04,0008.52,0007.44
2024-06-16 11:43:00,SystemResetWarning,0824.0,5.00,000.00,030.1,028.8,000.0,038.8,031.8,017.6,0004.3,0016.92,0008.52,0007.46
2024-06-16 11:44:00,SystemResetWarning,0824.0,5.01,000.00,030.1,029.0,000.0,038.8,031.8,017.7,0004.2,0017.32,0008.49,0007.47
2024-06-16 11:45:00,SystemResetWarning,0824.0,5.01,000.00,030.2,029.1,000.0,038.8,031.8,017.9,0004.1,0017.43,0008.48,0007.45
2024-06-16 11:46:00,SystemResetWarning,0823.9,5.00,000.00,030.2,029.2,000.0,038.8,031.9,017.9,0004.1,0016.68,0008.37,0007.40
2024-06-16 11:47:00,SystemResetWarning,0823.9,5.00,000.00,030.2,029.3,000.0,038.8,031.9,017.9,0004.1,0018.44,0008.35,0007.35
2024-06-16 11:48:00,SystemResetWarning,0823.9,5.00,000.00,030.2,029.4,000.0,038.7,032.0,018.3,0004.2,0019.07,0008.30,0007.27
2024-06-16 11:49:00,SystemResetWarning,0823.9,5.00,000.00,030.3,029.5,000.0,038.7,032.0,018.3,0004.0,0021.21,0008.24,0007.13
2024-06-16 11:50:00,SystemResetWarning,0823.9,5.00,000.00,030.3,029.5,000.0,038.7,032.0,018.3,0003.9,0022.10,0008.12,0006.96
2024-06-16 11:51:00,SystemResetWarning,0823.9,5.00,000.00,030.3,029.6,000.0,038.8,032.1,018.1,0003.6,0022.10,0007.95,0006.78
2024-06-16 11:52:00,SystemResetWarning,0823.9,5.00,000.00,030.4,029.6,000.0,038.8,032.1,017.9,0003.4,0022.61,0007.77,0006.62
2024-06-16 11:53:00,SystemResetWarning,0823.8,5.00,000.00,030.4,029.7,000.0,038.8,032.1,017.3,0003.3,0024.28,0007.72,0006.54
2024-06-16 11:54:00,SystemResetWarning,0823.8,5.00,000.00,030.4,029.7,000.0,038.8,032.1,017.3,0003.5,0023.47,0007.68,0006.52
2024-06-16 11:55:00,SystemResetWarning,0823.9,5.00,000.00,030.4,029.7,000.0,038.8,032.2,017.2,0003.4,0023.45,0007.72,0006.50
2024-06-16 11:56:00,SystemResetWarning,0823.9,4.99,000.00,030.4,029.8,000.0,038.8,032.2,017.0,0004.1,0023.27,0007.75,0006.50
2024-06-16 11:57:00,SystemResetWarning,0823.9,5.00,000.00,030.5,029.8,000.0,038.8,032.2,016.5,0004.2,0023.47,0007.84,0006.58
2024-06-16 11:58:00,SystemResetWarning,0823.8,5.00,000.00,030.5,029.8,000.0,038.8,032.2,016.3,0004.2,0022.08,0007.98,0006.71
2024-06-16 11:59:00,SystemResetWarning,0823.8,5.00,000.00,030.5,029.8,000.0,038.8,032.2,016.7,0004.5,0021.70,0008.09,0006.88
